Regional Weather Roundup
Issued by NWS San Angelo, TX

Home | Current Version | Previous Version | Text Only | Print | Product List | Glossary On
Versions: 1 2 3 4 5 6 7 8 9 10 11 12 13 14 15 16 17 18 19 20 21 22 23 24 25 26 27 28 29 30 31 32 33 34 35 36 37 38 39 40 41 42 43 44 45 46 47 48 49 50
000
ASUS44 KSJT 300458
RWRSJT
WEST CENTRAL TEXAS REGIONAL WEATHER ROUNDUP
NATIONAL WEATHER SERVICE SAN ANGELO TX
1200 AM CDT SAT AUG 30 2014

NOTE: "FAIR" INDICATES FEW OR NO CLOUDS BELOW 12,000 FEET WITH NO
SIGNIFICANT WEATHER AND/OR OBSTRUCTIONS TO VISIBILITY.

TXZ049-054-064>066-071>073-076>078-098-099-113-114-127-128-139-140-
154-155-168>170-300600
...LOCATIONS ACROSS WEST CENTRAL TEXAS...

CITY           SKY/WX    TMP DP  RH WIND       PRES   REMARKS
SAN ANGELO     PTCLDY    74  67  78 CALM      29.97R
ABILENE        LGT RAIN  77  69  76 SE6       29.99R
DYESS AFB      NOT AVBL
JUNCTION       PTCLDY    78  69  73 SE3       29.96R
SWEETWATER     NOT AVBL
BROWNWOOD      NOT AVBL
COLEMAN        NOT AVBL
SONORA         NOT AVBL
OZONA          NOT AVBL
BRADY          NOT AVBL
$$

TEXAS PANHANDLE/OKLAHOMA PANHANDLE

CITY           SKY/WX    TMP DP  RH WIND       PRES   REMARKS
AMARILLO       CLEAR     72  54  53 S8        30.06R
BORGER         CLEAR     76  56  49 S9        30.02R
CANADIAN       NOT AVBL
DALHART        CLEAR     69  50  50 SE5       30.07S
DUMAS          NOT AVBL
GUYMON         NOT AVBL
HEREFORD       NOT AVBL
PAMPA          NOT AVBL
PERRYTON       NOT AVBL
$$

SOUTHERN PANHANDLE/SOUTH PLAINS/ROLLING PLAINS

CITY           SKY/WX    TMP DP  RH WIND       PRES   REMARKS
LUBBOCK        CLEAR     73  65  75 S10       30.04R
SNYDER         NOT AVBL
CHILDRESS      CLEAR     75  71  87 S8        29.98R
SEMINOLE       NOT AVBL
$$

PERMIAN BASIN

CITY           SKY/WX    TMP DP  RH WIND       PRES   REMARKS
MIDLAND        CLEAR     78  65  63 SE9       30.02R
ODESSA         CLEAR     78  63  59 SE12      30.03R
WINK           CLEAR     82  63  52 E12       29.98R
$$

FAR WEST/SOUTHWEST MOUNTAINS/TRANS PECOS

CITY           SKY/WX    TMP DP  RH WIND       PRES   REMARKS
ALPINE         NOT AVBL
DRYDEN           N/A     83  61  47 N9        29.94R
EL PASO        PTCLDY    81  50  33 E7        30.01R
FORT STOCKTON  PTCLDY    79  63  57 SE12      30.00R
GUADALUPE PASS PTCLDY    76  45  33 NE21      30.16S
MARFA          NOT AVBL
PECOS          NOT AVBL
$$

DALLAS/FORT WORTH METROPLEX

CITY           SKY/WX    TMP DP  RH WIND       PRES   REMARKS
DFW AIRPORT    PTCLDY    82  71  69 S8        29.92R
FTW MEACHAM    CLEAR     82  70  66 S12       29.92S
DAL-EXECUTIVE  MOCLDY    81  71  71 S6        29.92F
GRAND PRAIRIE  NOT AVBL
ADDISON        NOT AVBL
MESQUITE       NOT AVBL
LANCASTER      NOT AVBL
$$

NORTH CENTRAL TEXAS

CITY           SKY/WX    TMP DP  RH WIND       PRES   REMARKS
SHRMAN/DENISON NOT AVBL
GAINESVILLE    NOT AVBL
BRIDGEPORT     NOT AVBL
DENTON         PTCLDY    77  72  84 S6        29.93R
WAXAHACHIE     NOT AVBL
GRANBURY       NOT AVBL
$$

WESTERN NORTH TEXAS

CITY           SKY/WX    TMP DP  RH WIND       PRES   REMARKS
WICHITA FALLS  CLEAR     74  69  85 CALM      29.93R
VERNON         NOT AVBL
BRECKENRIDGE   NOT AVBL
COMANCHE       NOT AVBL
$$

CENTRAL AND SOUTH CENTRAL TEXAS

CITY           SKY/WX    TMP DP  RH WIND       PRES   REMARKS
AUSTIN/BERGSTM PTCLDY    76  72  87 SE5       29.91F
WACO           MOCLDY    78  69  73 SE6       29.92S
HILLSBORO      NOT AVBL
TEMPLE         NOT AVBL
KILLEEN-GRAY   PTCLDY    75  70  83 SE6       29.94S
FORT HOOD      NOT AVBL
GEORGETOWN     NOT AVBL
LAGO VISTA     NOT AVBL
SAN MARCOS     NOT AVBL
NEW BRAUNFELS  PTCLDY    77  71  82 E3        29.91S
RANDOLPH AFB   NOT AVBL
SAN ANTONIO    PTCLDY    82  71  69 E13       29.93R
STINSON        CLEAR     82  71  69 E8        29.90R
PLEASANTON     NOT AVBL
LA GRANGE      NOT AVBL
GIDDINGS       NOT AVBL
$$

EAST TEXAS

CITY           SKY/WX    TMP DP  RH WIND       PRES   REMARKS
PARIS          NOT AVBL
CLARKSVILLE    NOT AVBL
TYLER          PTCLDY    76  71  85 SE6       29.95R
LONGVIEW       CLOUDY    77  68  73 S13       29.94F
PALESTINE      NOT AVBL
NACOGDOCHES    NOT AVBL
$$

TEXAS HILL COUNTRY AND EDWARDS PLATEAU

CITY           SKY/WX    TMP DP  RH WIND       PRES   REMARKS
LLANO          NOT AVBL
HORSESHOE BAY  NOT AVBL
KERRVILLE      NOT AVBL
FREDERICKSBRG  NOT AVBL
ROCKSPRINGS    NOT AVBL
HONDO          PTCLDY    82  68  62 E8        29.93R
UVALDE         NOT AVBL
DEL RIO        CLOUDY    90  66  45 E12       29.87R
$$

SOUTHEAST TEXAS

CITY           SKY/WX    TMP DP  RH WIND       PRES   REMARKS
COLLEGE STN    CLEAR     77  71  82 SE7       29.93S
CALDWELL       NOT AVBL
CROCKETT       NOT AVBL
BRENHAM        NOT AVBL
HUNTSVILLE     CLOUDY    77  72  84 CALM      29.95R
CONROE         CLOUDY    75  71  87 CALM      29.94R
HOUSTON BUSH   MOCLDY    75  73  94 E8        29.92F
HOUSTON HOBBY  MOCLDY    79  74  84 E9        29.90F
PERLAND        MOCLDY    78  74  87 E7        29.92S
WHARTON        NOT AVBL
$$

THE UPPER TEXAS COAST

CITY           SKY/WX    TMP DP  RH WIND       PRES   REMARKS
ORANGE         NOT AVBL
PORT ARTHUR    LGT RAIN  78  75  90 E9        29.93S
GALVESTON      CLOUDY    82  77  84 SE14      29.91R
ANGLETON       PTCLDY    75  73  93 CALM      29.90S
BAY CITY       NOT AVBL
$$

TEXAS COASTAL BEND, RIO GRANDE PLAINS DEEP SOUTH TEXAS

CITY           SKY/WX    TMP DP  RH WIND       PRES   REMARKS
VICTORIA       CLEAR     79  75  87 E6        29.91R
BEEVILLE       NOT AVBL
ROCKPORT       MOCLDY    83  76  79 SE10      29.88R
PORT ARANSAS   NOT AVBL
PORT LAVACA    NOT AVBL
CORPUS CHRISTI MOCLDY    79  76  90 SE7       29.87R
KINGSVILLE NAS NOT AVBL
COTULLA        CLEAR     83  72  69 SE13      29.89R
LAREDO         NOT AVBL
BROWNSVILLE    CLOUDY    82  79  90 E3        29.87R
PORT ISABEL    MOCLDY    84  79  85 E7        29.87R
HEBBRONVILLE   NOT AVBL
MCALLEN        MOCLDY    78  76  93 E7        29.88R
WESLACO        NOT AVBL
FALFURRIAS     NOT AVBL
EDINBURG       NOT AVBL
$$


USA.gov is the U.S. government's official web portal to all federal, state and local government web resources and services.